Wind_Speed
32 32 33 35 36 37 38 38 39 39 39 40 40 40 40 40 40 41 41 42 43 43 43 43 43 42 42 41 40 39 39 40 40 40 40 39 37 35
32 33 33 34 35 36 37 38 39 39 39 41 42 42 42 41 41 41 42 43 43 44 44 44 43 44 43 42 42 41 40 40 40 41 41 40 39 38
33 33 33 33 33 34 35 36 37 38 38 40 43 43 43 43 43 43 43 44 45 45 45 45 45 44 44 43 43 43 42 41 41 42 42 41 41 39
34 33 33 32 32 33 33 34 35 36 37 37 40 43 44 44 43 43 44 45 46 46 46 46 46 45 45 45 44 44 43 42 42 42 43 43 42 41
33 33 33 32 32 33 33 33 33 34 35 36 38 41 42 43 44 44 45 45 46 46 47 47 47 47 46 46 45 45 44 43 43 43 44 44 44 42
34 34 33 33 33 33 33 33 33 34 35 35 36 38 40 42 43 43 44 45 46 47 47 48 48 47 47 46 46 45 45 44 44 44 44 45 45 44
35 35 34 33 33 32 33 33 34 34 34 34 35 36 38 40 42 42 43 44 45 47 47 47 48 48 48 48 47 46 45 45 45 45 44 45 45 45
35 35 34 33 32 32 32 33 33 33 34 34 34 35 36 39 41 42 42 43 44 46 47 47 48 48 48 48 47 47 47 46 46 46 46 46 46 45
35 34 34 33 32 32 31 32 33 33 33 33 34 35 36 38 40 41 43 43 44 45 45 46 47 48 48 48 47 47 47 47 47 46 46 46 46 46
35 34 33 33 32 32 32 32 32 33 34 34 33 34 36 37 39 40 41 42 43 44 45 45 46 47 48 48 48 47 47 46 46 46 46 45 46 46
35 34 33 32 32 31 31 31 31 33 34 34 33 34 35 36 37 39 40 41 42 43 44 44 45 47 48 48 48 47 47 47 47 47 46 46 46 47
35 34 33 32 32 31 30 30 31 32 32 33 32 33 34 36 37 38 39 41 41 42 43 43 44 46 46 48 48 48 47 47 47 47 47 47 47 46
35 34 33 32 31 31 30 30 30 30 31 31 32 32 33 34 36 38 39 40 41 42 43 43 43 45 45 46 48 48 48 47 47 46 47 47 47 46
34 33 32 31 31 30 30 30 30 29 29 29 30 31 31 33 34 36 37 39 40 41 43 44 43 44 45 46 47 48 47 47 46 46 47 47 47 47
34 32 31 31 30 30 30 30 29 28 28 28 28 29 30 32 33 35 37 38 39 40 42 43 43 44 44 44 45 47 47 47 46 45 45 46 47 47
33 32 32 31 30 30 30 29 28 28 27 27 27 28 29 30 31 32 34 37 38 39 41 43 44 44 44 44 44 45 46 47 46 45 45 45 46 47
33 32 31 31 30 30 29 28 27 27 26 25 25 25 26 27 28 30 32 34 36 38 40 42 43 44 44 44 44 44 43 45 45 45 45 45 46 46
33 32 30 30 30 29 27 27 26 25 24 23 23 23 24 25 26 28 30 32 34 37 39 41 42 42 44 44 44 44 44 43 44 44 45 45 44 45
32 31 30 30 29 28 26 26 25 23 22 21 21 20 21 22 24 26 28 30 32 35 38 40 41 41 42 42 42 42 43 42 42 42 43 43 43 44
31 30 29 29 28 27 26 24 23 21 20 20 19 19 19 20 22 23 25 27 30 34 36 38 39 40 40 41 41 41 42 41 41 41 42 42 43 44
30 29 29 28 27 26 25 23 21 20 20 19 18 18 18 19 20 21 23 26 28 32 34 36 37 39 41 41 40 40 41 41 40 41 41 41 42 43
29 28 28 27 26 25 24 23 21 20 19 18 17 17 17 17 19 20 21 23 27 29 32 34 37 38 40 40 39 39 39 40 41 41 41 41 42 42
28 27 27 26 24 23 22 21 19 18 17 16 16 15 15 16 17 19 20 22 25 28 30 33 35 36 38 39 39 39 39 38 39 40 41 41 42 42
Wind_Direction
297 293 288 284 280 275 271 267 263 260 258 256 254 252 249 247 245 243 241 239 238 238 238 237 236 236 236 235 233 234 234 234 234 233 232 233 235 236
299 295 291 287 283 279 274 270 266 261 257 256 254 252 249 247 245 243 242 239 238 238 237 236 236 236 236 235 234 234 234 234 233 232 232 233 234 235
301 297 293 289 285 281 278 274 269 264 259 255 254 252 250 247 245 243 241 239 238 237 236 236 236 236 235 234 234 233 233 233 233 232 231 232 233 233
303 300 295 291 286 283 280 276 272 267 262 257 255 253 251 248 245 242 240 239 238 238 237 236 235 235 234 234 234 232 232 232 232 231 230 230 231 232
305 301 298 293 289 285 281 277 273 269 265 260 256 253 251 249 246 243 241 239 238 238 237 236 235 234 233 233 233 232 232 231 231 231 230 230 230 230
306 303 300 295 291 286 282 278 275 271 268 263 258 254 251 249 246 243 241 239 238 237 237 236 234 233 232 232 231 231 231 231 231 231 230 229 228 229
307 305 302 298 293 288 284 279 276 273 270 266 261 256 252 249 246 243 241 239 238 237 236 235 234 232 232 231 230 230 231 230 230 229 229 228 227 227
308 306 304 300 295 291 285 281 278 275 272 267 262 258 254 250 247 244 241 239 238 237 235 234 233 232 231 231 229 229 229 229 229 229 228 227 226 226
309 307 305 301 297 293 288 284 279 276 272 268 263 260 256 252 248 245 242 239 237 236 234 232 232 230 230 229 228 228 228 229 229 227 226 226 226 225
310 308 305 301 298 294 290 286 282 278 275 270 265 261 257 253 249 245 243 240 237 235 234 232 230 229 228 228 227 226 226 226 227 227 226 226 224 224
311 309 306 302 299 296 292 288 285 281 276 272 267 262 258 254 249 246 243 240 236 234 233 231 229 228 227 226 225 224 225 225 225 226 226 225 225 225
310 308 305 303 300 297 294 290 286 283 279 273 267 264 259 254 250 246 242 239 236 233 232 230 228 226 225 224 223 223 224 224 224 224 224 224 224 223
309 307 305 303 301 298 296 292 288 284 280 275 269 265 260 255 250 246 242 239 235 231 230 229 226 224 223 223 222 222 222 222 223 223 222 222 222 221
309 307 305 303 302 300 298 295 292 286 282 277 271 266 261 256 250 246 242 238 234 230 228 227 225 224 222 222 222 222 222 221 222 223 222 221 221 221
309 307 305 304 303 301 300 297 294 289 284 279 273 267 262 257 251 246 242 237 233 230 228 227 225 223 222 221 220 221 221 221 221 221 221 220 220 221
308 307 305 304 303 302 300 297 294 290 286 281 276 268 263 257 251 245 240 235 231 229 227 225 223 222 220 219 219 218 220 220 220 219 219 219 219 219
307 306 305 304 304 303 301 298 295 291 288 283 277 270 263 256 249 243 239 235 230 227 225 224 222 222 220 218 218 218 218 218 218 218 218 218 218 219
306 305 305 305 305 304 302 299 296 292 288 283 278 272 263 255 247 241 238 234 229 226 224 223 221 220 219 218 218 217 216 216 217 218 217 217 218 218
304 304 304 304 305 305 303 301 296 292 287 282 278 274 264 254 246 241 237 233 229 224 222 220 219 218 218 216 216 216 215 215 216 217 218 217 217 218
303 304 304 304 305 305 304 302 297 290 286 282 277 273 263 254 247 241 235 231 226 221 219 217 217 216 216 215 215 214 214 213 213 216 216 217 217 217
301 303 304 304 305 303 302 301 297 291 285 283 277 270 261 252 245 239 233 227 222 217 216 214 214 214 213 213 212 213 213 212 212 215 215 216 216 216
299 301 304 303 303 302 301 300 296 291 286 282 277 267 258 250 241 234 229 224 219 216 214 212 212 212 211 211 211 212 212 211 211 213 214 214 214 214
297 300 303 303 301 301 301 299 296 293 286 282 275 265 254 245 237 231 227 221 216 214 212 212 211 211 211 211 210 212 213 211 211 213 213 214 214 213
Height
5785 5782 5780 5777 5776 5775 5774 5775 5776 5776 5777 5777 5779 5781 5783 5785 5788 5791 5794 5797 5800 5803 5807 5811 5815 5819 5823 5827 5832 5836 5841 5845 5849 5854 5859 5864 5868 5872
5775 5772 5769 5767 5765 5763 5762 5762 5762 5764 5765 5765 5766 5768 5771 5774 5776 5779 5782 5785 5789 5792 5796 5800 5804 5809 5813 5817 5822 5827 5831 5836 5840 5845 5850 5855 5860 5865
5766 5762 5759 5756 5754 5753 5751 5750 5750 5751 5753 5753 5753 5755 5758 5761 5764 5767 5771 5774 5777 5781 5784 5789 5793 5798 5802 5807 5812 5817 5821 5826 5831 5836 5841 5846 5852 5857
5756 5753 5749 5747 5744 5742 5740 5739 5738 5738 5740 5741 5741 5742 5745 5748 5751 5755 5758 5762 5765 5769 5773 5777 5782 5787 5791 5796 5801 5806 5811 5816 5821 5826 5832 5837 5843 5848
5747 5743 5740 5737 5734 5732 5730 5728 5727 5727 5727 5729 5729 5730 5732 5734 5738 5742 5745 5749 5753 5757 5761 5765 5770 5775 5780 5785 5790 5796 5801 5806 5811 5816 5822 5828 5833 5839
5738 5734 5730 5727 5724 5721 5719 5718 5716 5716 5716 5716 5717 5718 5719 5721 5725 5729 5733 5736 5740 5745 5749 5753 5758 5763 5769 5774 5780 5785 5790 5795 5801 5806 5812 5818 5824 5829
5729 5725 5720 5717 5713 5711 5709 5707 5705 5705 5704 5704 5705 5706 5707 5709 5712 5715 5720 5723 5728 5732 5737 5742 5746 5752 5757 5762 5768 5774 5779 5785 5790 5796 5802 5808 5814 5820
5720 5716 5711 5707 5703 5700 5698 5696 5695 5693 5693 5693 5693 5694 5695 5697 5699 5703 5707 5711 5716 5720 5724 5729 5734 5740 5745 5751 5757 5763 5768 5774 5780 5786 5791 5797 5804 5810
5711 5706 5702 5698 5694 5691 5688 5685 5684 5682 5681 5681 5682 5682 5683 5685 5687 5691 5694 5698 5703 5706 5711 5717 5722 5728 5733 5739 5745 5751 5757 5763 5769 5775 5781 5787 5793 5800
5702 5697 5693 5688 5684 5681 5678 5675 5673 5671 5670 5670 5670 5670 5671 5672 5674 5678 5681 5685 5690 5694 5699 5705 5710 5715 5721 5727 5734 5740 5746 5753 5758 5765 5771 5777 5783 5789
5693 5688 5683 5679 5675 5671 5668 5666 5663 5660 5659 5658 5658 5658 5659 5660 5662 5665 5669 5673 5678 5682 5686 5692 5698 5703 5709 5716 5722 5729 5735 5741 5748 5754 5760 5767 5773 5779
5684 5679 5674 5670 5666 5662 5659 5656 5653 5650 5648 5647 5646 5647 5647 5648 5650 5653 5656 5660 5665 5670 5675 5680 5686 5691 5698 5705 5711 5718 5724 5730 5737 5744 5750 5757 5763 5769
5675 5670 5665 5661 5657 5653 5649 5646 5643 5640 5638 5636 5635 5635 5635 5636 5638 5640 5644 5647 5653 5658 5663 5668 5674 5680 5687 5694 5700 5707 5713 5720 5727 5733 5740 5746 5753 5759
5667 5662 5657 5652 5648 5644 5640 5636 5633 5630 5628 5626 5625 5624 5624 5625 5626 5628 5632 5636 5641 5646 5651 5657 5663 5670 5676 5683 5689 5696 5703 5710 5717 5723 5729 5736 5742 5749
5658 5653 5648 5644 5640 5635 5631 5627 5623 5620 5618 5616 5614 5614 5613 5614 5615 5617 5620 5624 5629 5635 5640 5646 5652 5659 5666 5673 5679 5686 5693 5700 5706 5713 5720 5726 5733 5740
5649 5644 5640 5635 5631 5626 5622 5618 5614 5611 5608 5606 5604 5603 5603 5603 5604 5606 5609 5613 5618 5624 5629 5635 5642 5648 5655 5662 5669 5676 5683 5690 5697 5704 5710 5717 5724 5731
5640 5635 5631 5626 5622 5618 5613 5609 5605 5602 5599 5597 5595 5594 5593 5593 5595 5597 5600 5603 5608 5614 5619 5625 5631 5638 5645 5653 5660 5667 5674 5681 5688 5694 5701 5708 5715 5722
5631 5627 5622 5618 5614 5609 5605 5601 5597 5593 5591 5588 5587 5585 5585 5585 5586 5588 5591 5594 5599 5604 5609 5615 5622 5629 5636 5644 5652 5658 5665 5672 5679 5685 5692 5699 5706 5713
5622 5618 5614 5610 5605 5601 5597 5593 5589 5586 5583 5581 5579 5578 5577 5577 5579 5580 5583 5586 5590 5595 5600 5607 5613 5620 5628 5636 5643 5650 5657 5663 5670 5677 5684 5691 5698 5704
5613 5610 5606 5601 5597 5593 5589 5585 5582 5579 5576 5574 5573 5571 5570 5571 5572 5573 5576 5579 5582 5587 5593 5599 5606 5613 5621 5628 5634 5641 5648 5655 5663 5669 5676 5683 5689 5695
5605 5601 5597 5593 5589 5586 5582 5578 5575 5572 5570 5568 5566 5565 5565 5565 5566 5567 5569 5572 5576 5581 5586 5592 5599 5605 5612 5619 5627 5634 5641 5648 5655 5661 5668 5674 5681 5687
5597 5593 5590 5586 5582 5578 5575 5571 5568 5566 5564 5562 5560 5559 5559 5559 5560 5562 5564 5567 5571 5575 5580 5586 5592 5599 5606 5613 5621 5627 5634 5640 5647 5653 5660 5667 5673 5680
5589 5585 5582 5578 5575 5571 5568 5565 5562 5560 5558 5556 5555 5554 5554 5554 5555 5557 5559 5562 5566 5570 5575 5581 5587 5593 5600 5607 5614 5621 5627 5633 5640 5646 5653 5659 5666 5672